Flag for Brazil Weather past 2 weeks in Mossoró, Rio Grande do Norte, Brazil

Now
77 °F

Partly cloudy.


Feels Like: 78 °F
Forecast: 76 / 93 °F
Wind: 3 mph from Southwest

Location: Fortaleza Aeropor-To

Current Time: Mar 4, 2015 at 5:57:10 AM

Latest Report: Mar 4, 2015 at 5:00 AM


Visibility: N/A

Pressure: 29.83 "Hg

Humidity: 83%

Dew point: 72 °F

Location of MossoróLocation

Historic Weather in Mossoró — Graph

°F

Mossoró temperature yesterday

Maximum temperature yesterday: 86 °F (at 11:00 AM)
Minimum temperature yesterday: 75 °F (at 7:00 AM)
Average temperature yesterday: 81 °F

Past Weeks' High & Low Weather Summary

 TemperatureHumidityPressure
High86 °F (Feb 17, 10:00 AM)94% (Feb 17, 2:00 PM)30.04 "Hg (Feb 17, 2:00 PM)
Low72 °F (Feb 21, 8:00 AM)55% (Mar 3, 12:00 PM)29.77 "Hg (Feb 18, 4:00 PM)
Average79 °F78%29.86 "Hg
* Reported Feb 17 4:00 AM — Mar 4 4:00 AM, Mossoró, Weather by CustomWeather, © 2015

Note: Actual official high and low records may vary slightly from our data, if they occured in-between our weather recording intervals... More about our weather records

Advertising

Mossoró weather history for previous 24 hours

 ConditionsComfort  
Time TempWeatherWind HumidityBarometerVisibility
4:00 AM
Wed, Mar 4
77 °FPassing clouds.2 mph83%29.80 "HgN/A
3:00 AM77 °FPassing clouds.2 mph83%29.80 "HgN/A
2:00 AM77 °FPassing clouds.5 mph79%29.80 "HgN/A
1:00 AM77 °FClear.6 mph79%29.80 "Hg10 mi
12:00 AM79 °FClear.2 mph74%29.83 "Hg10 mi
11:00 PM
Tue, Mar 3
79 °FClear.8 mph74%29.86 "Hg10 mi
10:00 PM81 °FClear.8 mph70%29.86 "Hg10 mi
9:00 PM81 °FPassing clouds.5 mph70%29.86 "HgN/A
8:00 PM81 °FPassing clouds.5 mph70%29.86 "HgN/A
7:00 PM81 °FPassing clouds.7 mph70%29.83 "HgN/A
6:00 PM82 °FPassing clouds.7 mph66%29.80 "HgN/A
5:00 PM82 °FPassing clouds.14 mph62%29.80 "HgN/A
4:00 PM84 °FPassing clouds.16 mph58%29.80 "HgN/A
3:00 PM86 °FPassing clouds.15 mph55%29.80 "HgN/A
2:00 PM86 °FScattered clouds.18 mph55%29.83 "HgN/A
1:00 PM86 °FScattered clouds.22 mph59%29.83 "HgN/A
12:00 PM86 °FPassing clouds.23 mph55%29.86 "HgN/A
11:00 AM86 °FScattered clouds.15 mph59%29.89 "HgN/A
10:00 AM84 °FScattered clouds.13 mph62%29.89 "HgN/A
9:00 AM81 °FPassing clouds.10 mph74%29.89 "HgN/A
8:00 AM77 °FPassing clouds.7 mph83%29.89 "HgN/A
7:00 AM75 °FPartly sunny.8 mph89%29.89 "HgN/A
6:00 AM77 °FScattered clouds.3 mph89%29.86 "HgN/A
5:00 AM77 °FPassing clouds.2 mph83%29.83 "HgN/A
Weather by CustomWeather, © 2015

See weather overviewHow to use our weather pages